Flag for Czech Republic Weather past 2 weeks in Liberec, Czech Republic

Now
60 °F

Cool.


Feels Like: 61 °F
Forecast: 49 / 70 °F
Wind: 3 mph from Southeast

Location: Liberec

Current Time: Apr 26, 2015 at 7:48:09 PM

Latest Report: Apr 26, 2015 at 7:00 PM


Visibility: 13 mi

Pressure: 29.73 "Hg

Humidity: 64%

Dew point: 48 °F

Location of LiberecLocation

Historic Weather in Liberec — Graph

°F

Liberec temperature yesterday

Maximum temperature yesterday: 67 °F (at 4:00 PM)
Minimum temperature yesterday: 47 °F (at 5:00 AM)
Average temperature yesterday: 58 °F

Past Weeks' High & Low Weather Summary

 TemperatureHumidityPressure
High70 °F (Apr 15, 4:00 PM)99% (Apr 23, 7:00 AM)30.45 "Hg (Apr 23, 7:00 AM)
Low27 °F (Apr 19, 6:00 AM)20% (Apr 21, 5:00 PM)29.74 "Hg (Apr 26, 6:00 PM)
Average49 °F61%30.12 "Hg
* Reported Apr 11 6:00 PM — Apr 26 6:00 PM, Liberec, Weather by CustomWeather, © 2015

Note: Actual official high and low records may vary slightly from our data, if they occured in-between our weather recording intervals... More about our weather records

Advertising

Liberec weather history for previous 24 hours

 ConditionsComfort  
Time TempWeatherWind HumidityBarometerVisibility
6:00 PM
Sun, Apr 26
62 °FRefreshingly cool.3 mph59%29.74 "Hg12 mi
5:00 PM61 °FPartly sunny.3 mph61%29.75 "Hg19 mi
4:00 PM61 °FThunderstorms. Scattered clouds.2 mph65%29.76 "Hg16 mi
3:00 PM59 °FThunderstorms. Overcast.3 mph64%29.76 "Hg12 mi
2:00 PM61 °FPartly sunny.3 mph60%29.77 "Hg16 mi
1:00 PM59 °FPartly sunny.3 mph64%29.78 "Hg19 mi
12:00 PM59 °FPartly sunny.2 mph64%29.80 "Hg19 mi
11:00 AM58 °FOvercast.1 mph66%29.81 "Hg17 mi
10:00 AM58 °FOvercast.1 mph71%29.81 "Hg16 mi
9:00 AM56 °FOvercast.1 mph80%29.82 "Hg9 mi
8:00 AM54 °FOvercast.1 mph87%29.82 "Hg7 mi
7:00 AM53 °FCool.1 mph88%29.82 "Hg12 mi
6:00 AM53 °FCool.1 mph86%29.82 "Hg12 mi
5:00 AM53 °FCool.1 mph86%29.81 "Hg12 mi
4:00 AM53 °FCool.1 mph86%29.82 "Hg12 mi
3:00 AM55 °FDrizzle. Overcast.5 mph76%29.81 "Hg12 mi
2:00 AM56 °FCool.6 mph71%29.81 "Hg12 mi
1:00 AM57 °FCool.5 mph68%29.81 "Hg12 mi
12:00 AM57 °FDrizzle. Overcast.3 mph66%29.82 "Hg12 mi
11:00 PM
Sat, Apr 25
59 °FRain showers. Overcast.7 mph59%29.82 "Hg12 mi
10:00 PM60 °FOvercast.3 mph52%29.81 "Hg17 mi
9:00 PM60 °FOvercast.3 mph50%29.80 "Hg19 mi
8:00 PM61 °FOvercast.5 mph46%29.79 "Hg19 mi
7:00 PM64 °FMild.5 mph37%29.77 "Hg12 mi
Weather by CustomWeather, © 2015

See weather overviewHow to use our weather pages